K1TTC Weather Reports


Display with metric or nautical units.
time (UTC)temp
F
wind
direction
speed
MPH
gust
MPH
rain 1hr
in
rain 24hr
in
rain mn
in
humidity
%
barometer
mb
20220627145149 72 195 4.0 9.0 0.06 0.06 0.06 73 1013.0
20220627144153 72 190 4.0 9.0 0.04 0.04 0.04 69 1013.0
20220627143149 74 170 6.0 15.0 0.00 0.00 0.00 64 1013.0
20220627142147 74 207 7.0 16.0 0.00 0.00 0.00 63 1012.9
20220627141147 75 180 6.0 12.0 0.00 0.00 0.00 63 1013.0
20220627140147 74 229 6.0 16.0 0.00 0.00 0.00 63 1013.0
20220627135200 74 186 6.0 17.0 0.00 0.00 0.00 63 1013.0
20220627134147 74 213 6.0 13.0 0.00 0.00 0.00 63 1012.9
20220627133148 74 202 6.0 12.0 0.00 0.00 0.00 62 1013.1
20220627132158 74 236 5.0 10.0 0.00 0.00 0.00 63 1013.2
20220627131147 74 205 4.0 8.0 0.00 0.00 0.00 63 1013.3
20220627130147 74 198 5.0 12.0 0.00 0.00 0.00 63 1013.3
20220627125156 74 208 4.0 12.0 0.00 0.00 0.00 63 1013.2
20220627124148 74 201 4.0 8.0 0.00 0.00 0.00 63 1013.2
20220627123151 73 156 4.0 9.0 0.00 0.00 0.00 63 1013.2
20220627122155 73 222 4.0 10.0 0.00 0.00 0.00 62 1013.2
20220627121148 73 235 4.0 8.0 0.00 0.00 0.00 62 1013.3
20220627120147 73 217 4.0 9.0 0.00 0.00 0.00 62 1013.4
20220627115148 72 204 4.0 12.0 0.00 0.00 0.00 62 1013.4
20220627114145 72 207 5.0 10.0 0.00 0.00 0.00 62 1013.3
20220627113145 72 259 4.0 11.0 0.00 0.00 0.00 62 1013.4
20220627112154 72 257 5.0 13.0 0.00 0.00 0.00 61 1013.4
20220627111145 72 217 5.0 11.0 0.00 0.00 0.00 61 1013.5
20220627110147 72 214 4.0 8.0 0.00 0.00 0.00 62 1013.4
20220627105151 71 184 3.0 9.0 0.00 0.00 0.00 62 1013.4
20220627104146 71 189 3.0 8.0 0.00 0.00 0.00 63 1013.5
20220627103144 71 177 3.0 8.0 0.00 0.00 0.00 63 1013.6
20220627102142 71 226 3.0 11.0 0.00 0.00 0.00 63 1013.8
20220627101144 70 181 3.0 9.0 0.00 0.00 0.00 63 1013.8
20220627100143 70 218 3.0 9.0 0.00 0.00 0.00 63 1013.8
20220627095147 70 201 2.0 6.0 0.00 0.00 0.00 62 1013.8
20220627094145 70 200 3.0 12.0 0.00 0.00 0.00 62 1013.9
20220627093144 70 229 4.0 8.0 0.00 0.00 0.00 62 1014.1
20220627092146 70 186 4.0 9.0 0.00 0.00 0.00 61 1014.1
20220627091146 70 205 3.0 8.0 0.00 0.00 0.00 60 1014.1
20220627090139 70 222 4.0 11.0 0.00 0.00 0.00 60 1014.2
20220627085149 70 190 5.0 10.0 0.00 0.00 0.00 59 1014.2
20220627084138 70 213 4.0 9.0 0.00 0.00 0.00 58 1014.3
20220627083143 70 221 4.0 9.0 0.00 0.00 0.00 57 1014.3
20220627082139 71 170 4.0 8.0 0.00 0.00 0.00 56 1014.4
20220627081134 71 198 4.0 9.0 0.00 0.00 0.00 55 1014.4
20220627080129 71 196 3.0 10.0 0.00 0.00 0.00 54 1014.5
20220627075141 71 232 4.0 10.0 0.00 0.00 0.00 53 1014.6
20220627074132 71 235 3.0 7.0 0.00 0.00 0.00 52 1014.7
20220627073128 71 154 3.0 8.0 0.00 0.00 0.00 51 1014.9
20220627072135 71 201 3.0 9.0 0.00 0.00 0.00 50 1015.0
20220627071131 72 200 3.0 9.0 0.00 0.00 0.00 49 1015.2
20220627070130 72 197 4.0 9.0 0.00 0.00 0.00 49 1015.3
20220627065137 72 189 3.0 9.0 0.00 0.00 0.00 48 1015.4
20220627064122 72 180 2.0 8.0 0.00 0.00 0.00 48 1015.4
20220627063114 72 191 3.0 7.0 0.00 0.00 0.00 47 1015.5
20220627062113 72 203 3.0 8.0 0.00 0.00 0.00 47 1015.6
20220627061111 73 197 4.0 9.0 0.00 0.00 0.00 47 1015.6
20220627060111 73 199 3.0 8.0 0.00 0.00 0.00 47 1015.7
20220627055111 73 211 4.0 9.0 0.00 0.00 0.00 47 1015.8
20220627054111 73 168 4.0 11.0 0.00 0.00 0.00 47 1015.9
20220627053113 73 215 3.0 7.0 0.00 0.00 0.00 47 1015.9
20220627052111 73 207 4.0 12.0 0.00 0.00 0.00 46 1016.0
20220627051111 73 200 4.0 9.0 0.00 0.00 0.00 47 1016.0
20220627050110 74 226 4.0 14.0 0.00 0.00 0.00 47 1016.0
20220627045111 74 239 3.0 8.0 0.00 0.00 0.00 47 1016.1
20220627044109 74 193 4.0 9.0 0.00 0.00 0.00 47 1016.1
20220627043108 74 203 3.0 10.0 0.00 0.00 0.00 48 1016.2
20220627042109 74 203 3.0 7.0 0.00 0.00 0.00 49 1016.2
20220627041108 75 193 3.0 6.0 0.00 0.00 0.00 49 1016.5
20220627040109 75 184 4.0 9.0 0.00 0.00 0.00 49 1016.6
20220627035106 75 204 4.0 14.0 0.00 0.00 0.00 51 1016.6
20220627034105 75 203 3.0 9.0 0.00 0.00 0.00 54 1016.7
20220627033106 75 177 3.0 8.0 0.00 0.00 0.00 56 1016.7
20220627032105 75 204 3.0 6.0 0.00 0.00 0.00 56 1016.7
20220627031104 76 196 3.0 7.0 0.00 0.00 0.00 57 1016.7
20220627030101 76 201 3.0 7.0 0.00 0.00 0.00 57 1016.7
20220627025100 76 191 3.0 7.0 0.00 0.00 0.00 58 1016.7
20220627024101 76 224 3.0 7.0 0.00 0.00 0.00 58 1016.8
20220627023101 76 175 4.0 10.0 0.00 0.00 0.00 58 1016.7
20220627022100 76 218 3.0 8.0 0.00 0.00 0.00 58 1016.9
20220627021101 77 206 3.0 8.0 0.00 0.00 0.00 57 1017.1
20220627020101 77 188 2.0 4.0 0.00 0.00 0.00 56 1017.1
20220627015101 77 220 3.0 7.0 0.00 0.00 0.00 55 1017.0
20220627014101 78 201 3.0 6.0 0.00 0.00 0.00 54 1016.8
20220627013101 78 199 3.0 6.0 0.00 0.00 0.00 53 1016.8
20220627012114 78 217 3.0 7.0 0.00 0.00 0.00 51 1016.7
20220627011105 78 209 2.0 7.0 0.00 0.00 0.00 50 1016.6
20220627010603 79 211 3.0 8.0 0.00 0.00 0.00 48 1016.6
20220627005112 79 182 3.0 9.0 0.00 0.00 0.00 47 1016.6
20220627004100 80 184 2.0 6.0 0.00 0.00 0.00 46 1016.6
20220627003101 80 274 3.0 6.0 0.00 0.00 0.00 45 1016.5
20220627002115 80 177 2.0 8.0 0.00 0.00 0.00 44 1016.6
20220627001100 81 185 4.0 11.0 0.00 0.00 0.00 43 1016.6
20220627000103 82 192 3.0 10.0 0.00 0.00 0.00 42 1016.5
20220626235110 82 222 3.0 7.0 0.00 0.00 0.00 42 1016.5
20220626234101 82 207 3.0 8.0 0.00 0.00 0.00 42 1016.2
20220626233102 83 209 5.0 14.0 0.00 0.00 0.00 41 1016.2
20220626232107 84 197 4.0 11.0 0.00 0.00 0.00 41 1016.0
20220626231102 84 203 5.0 10.0 0.00 0.00 0.00 41 1015.9
20220626230058 85 122 4.0 14.0 0.00 0.00 0.00 42 1015.8
20220626225058 86 191 7.0 19.0 0.00 0.00 0.00 40 1015.6
20220626224058 86 192 6.0 14.0 0.00 0.00 0.00 40 1015.4
20220626223103 87 213 3.0 8.0 0.00 0.00 0.00 41 1015.3
20220626222059 87 228 1.0 7.0 0.00 0.00 0.00 41 1015.4
20220626221057 87 128 2.0 7.0 0.00 0.00 0.00 41 1015.5
20220626220057 87 216 1.0 3.0 0.00 0.00 0.00 41 1015.5
20220626215055 87 179 1.0 5.0 0.00 0.00 0.00 41 1015.4
20220626214054 87 85 1.0 4.0 0.00 0.00 0.00 40 1015.6
20220626213052 88 182 2.0 8.0 0.00 0.00 0.00 39 1015.8
20220626212103 89 193 2.0 6.0 0.00 0.00 0.00 38 1015.8
20220626211050 89 229 2.0 8.0 0.00 0.00 0.00 38 1016.1
20220626210051 89 189 3.0 9.0 0.00 0.00 0.00 36 1016.2
20220626205058 89 230 3.0 9.0 0.00 0.00 0.00 37 1016.3
20220626204049 89 181 2.0 7.0 0.00 0.00 0.00 36 1016.3
20220626203049 87 161 2.0 8.0 0.00 0.00 0.00 39 1016.3
20220626202056 87 132 2.0 8.0 0.00 0.00 0.00 39 1016.5
20220626201050 88 222 2.0 10.0 0.00 0.00 0.00 39 1016.5
20220626200048 88 187 2.0 7.0 0.00 0.00 0.00 37 1016.6
20220626195048 89 120 2.0 6.0 0.00 0.00 0.00 36 1016.8
20220626194049 88 202 4.0 10.0 0.00 0.00 0.00 36 1016.9
20220626193048 90 198 3.0 8.0 0.00 0.00 0.00 33 1016.9
20220626192048 92 84 2.0 4.0 0.00 0.00 0.00 29 1016.9
20220626191049 89 206 3.0 6.0 0.00 0.00 0.00 29 1017.0
20220626190047 89 264 3.0 9.0 0.00 0.00 0.00 30 1017.0
20220626185047 91 206 3.0 8.0 0.00 0.00 0.00 29 1017.1
20220626184046 91 202 3.0 8.0 0.00 0.00 0.00 29 1017.1
20220626183046 91 210 3.0 10.0 0.00 0.00 0.00 29 1017.4
20220626182048 92 205 3.0 9.0 0.00 0.00 0.00 30 1017.6
20220626181047 92 201 3.0 8.0 0.00 0.00 0.00 30 1017.6
20220626180044 91 223 4.0 8.0 0.00 0.00 0.00 29 1017.7
20220626175046 91 183 4.0 8.0 0.00 0.00 0.00 28 1017.9
20220626174044 91 195 3.0 6.0 0.00 0.00 0.00 29 1018.1
20220626173041 91 184 4.0 10.0 0.00 0.00 0.00 28 1018.3
20220626172042 90 124 3.0 8.0 0.00 0.00 0.00 34 1018.4
20220626171036 90 234 3.0 8.0 0.00 0.00 0.00 31 1018.5
20220626170031 91 296 2.0 7.0 0.00 0.00 0.00 32 1018.6
20220626165044 90 209 5.0 12.0 0.00 0.00 0.00 31 1018.7
20220626164029 90 191 3.0 8.0 0.00 0.00 0.00 31 1018.8
20220626163029 91 235 2.0 11.0 0.00 0.00 0.00 32 1018.9
20220626162029 89 202 4.0 8.0 0.00 0.00 0.00 32 1019.1
20220626161025 90 228 2.0 6.0 0.00 0.00 0.00 31 1019.1
20220626160025 89 257 3.0 9.0 0.00 0.00 0.00 32 1019.2
20220626155036 89 170 3.0 8.0 0.00 0.00 0.00 32 1019.4
20220626154027 89 201 2.0 7.0 0.00 0.00 0.00 34 1019.4
20220626153023 90 284 1.0 4.0 0.00 0.00 0.00 34 1019.6
20220626152037 89 60 2.0 7.0 0.00 0.00 0.00 35 1019.6
20220626151020 88 154 1.0 5.0 0.00 0.00 0.00 36 1019.7
20220626150019 87 209 2.0 6.0 0.00 0.00 0.00 37 1019.8